[[{"header":{"parameterUnit":"m.s-1","parameterCategory":1,"la1":30.2991,"la2":30.254,"lo1":-89.0895,"lo2":-89.0444,"dy":0.0017,"dx":0.0017,"nx":28,"ny":28,"refTime":"2025-07-15T21:00:00:Z","depth":0,"parameterNumber":2,"parameterNumberName":"U-component_of_WINDS"},"data":[0,0,0,0,0,0,0,0,0,0,0,0,0,0,0,0,0,0,0,0,0,0,0,0,0,0,0,0,0,0,0,0,0,0,0,0,0,0,0,0,0,0,0,0,0,0,0,0,0,0,0,0,0,0,0,0,0,0,0.0629,0.0629,0,0.0628,0.0628,0.0628,0.0629,0.0629,0.0629,0.0629,0.0628,0.0628,0.0628,0,0,0,0,0,0,0,0,0,0,0,0,0,0.0632,0.0632,0.0629,0.0629,0.0629,0.0628,0.0628,0.0628,0.0629,0.0629,0.0629,0.0629,0.0628,0.0628,0.0628,0,0,0,0,0,0,0,0,0,0,0,0,0,0.0631,0.0632,0.0629,0.0629,0.0629,0.0628,0.0628,0.0628,0.0629,0.0629,0.0629,0.0629,0.0628,0.0628,0.0628,0.0627,0,0,0.0628,0.0628,0,0,0,0,0,0,0,0,0.0631,0.0631,0.0629,0.0629,0.0629,0.0629,0.0629,0.0628,0.0629,0.0629,0.0629,0.0629,0.0628,0.0628,0.0628,0.0627,0.0627,0.0628,0.0628,0.0628,0.0628,0,0,0,0,0,0,0,0.0631,0.0631,0.0629,0.0629,0.0629,0.063,0.063,0.0629,0.0629,0.0629,0.0629,0.0629,0.0628,0.0628,0.0628,0.0627,0.0628,0.0628,0.0628,0.0628,0.0624,0.0624,0,0,0,0,0,0,0.0631,0.0631,0.0629,0.0629,0.063,0.063,0.0629,0.0629,0.0629,0.0629,0.0629,0.0629,0.0628,0.0628,0.0628,0.0626,0.0628,0.0628,0.0628,0.0624,0.0624,0.0624,0,0,0,0,0,0,0.0631,0.0631,0.0629,0.063,0.063,0.0629,0.0629,0.0629,0.0629,0.0628,0.0628,0.0629,0.0628,0.0628,0.0627,0.0626,0.0628,0.0628,0.0624,0.0624,0.0624,0.0623,0,0,0,0,0,0,0.0631,0.0631,0.063,0.063,0.0629,0.0628,0.0629,0.0629,0.0628,0.0629,0.0628,0.0628,0.0628,0.0627,0.0627,0.0626,0.0628,0.0624,0.0624,0.0624,0.0623,0.0623,0.0623,0,0,0,0,0,0.0631,0.063,0.063,0.063,0.0629,0.0628,0.0628,0.0628,0.0628,0.0628,0.0628,0.0628,0.0627,0.0627,0.0627,0.0626,0.0624,0.0624,0.0624,0.0623,0.0623,0.0623,0,0,0,0,0,0,0.063,0.063,0.063,0.0628,0.0628,0.0628,0.0627,0.0628,0.0627,0.0627,0.0627,0.0627,0.0626,0.0626,0.0627,0.0625,0.0626,0.0625,0.0625,0.0625,0.0624,0.0624,0.0628,0,0,0,0,0,0.0629,0.0629,0.0629,0.0627,0.0627,0.0627,0.0627,0.0627,0.0627,0.0626,0.0626,0.0626,0.0626,0.0625,0.0625,0.0623,0.0623,0.0623,0.0622,0.0622,0.0622,0.0621,0.0621,0.0624,0.0624,0.0624,0,0,0.0628,0.0628,0.0628,0.0627,0.0627,0.0626,0.0627,0.0626,0.0626,0.0626,0.0625,0.0625,0.0625,0.0624,0.0623,0.0624,0.0621,0.0622,0.0622,0.0622,0.0621,0.0621,0.0621,0.0624,0.0624,0.0624,0,0,0.0626,0.0626,0.0625,0.0625,0.0624,0.0625,0.0624,0.0624,0.0624,0.0623,0.0624,0.0623,0.0622,0.0622,0.0622,0.062,0.062,0.062,0.0619,0.0618,0.0618,0.0618,0.0617,0.0617,0.062,0.062,0.062,0,0.0625,0.0624,0.0624,0.0623,0.0623,0.0624,0.0623,0.0623,0.0622,0.0622,0.0623,0.0622,0.0621,0.062,0.062,0.062,0.0619,0.062,0.0618,0.0618,0.0618,0.0617,0.0617,0.062,0.062,0.062,0.062,0,0.0622,0.0622,0.0621,0.062,0.062,0.0619,0.062,0.0619,0.062,0.062,0.0619,0.0619,0.0618,0.0618,0.0618,0.0617,0.0617,0.0618,0.0619,0.0617,0.0617,0.0616,0.062,0.062,0.062,0.062,0,0,0.0619,0.0619,0.0619,0.0619,0.0619,0.0618,0.0617,0.0617,0.0617,0.0617,0.0616,0.0615,0.0616,0.0616,0.0616,0.0615,0.0614,0.0616,0.0616,0.0616,0.0613,0.0612,0.0612,0.0615,0.0614,0.0614,0.0613,0,0.0616,0.0615,0.0616,0.0614,0.0614,0.0615,0.0614,0.0614,0.0614,0.0614,0.0614,0.0614,0.0615,0.0615,0.0614,0.0614,0.0613,0.0615,0.0614,0.0614,0.0614,0.0611,0.0611,0.0609,0.0612,0.0612,0.0612,0,0.0613,0.0613,0.0612,0.0612,0.0612,0.0611,0.0611,0.0611,0.0611,0.0611,0.0611,0.0612,0.0611,0.0612,0.0611,0.0612,0.0612,0.0612,0.0612,0.0612,0.0613,0.0611,0.0609,0.0608,0.0612,0.0612,0.0612,0,0.0611,0.061,0.0609,0.0609,0.061,0.0609,0.061,0.061,0.061,0.061,0.0609,0.0609,0.0609,0.0609,0.061,0.061,0.0609,0.061,0.0609,0.0609,0.0608,0.0608,0.0606,0.0609,0.0609,0.0609,0.0609,0,0.0608,0.0607,0.0608,0.0608,0.0607,0.0608,0.0607,0.0607,0.0607,0.0607,0.0608,0.0608,0.0608,0.0608,0.0609,0.0608,0.0608,0.0608,0.0608,0.0608,0.0608,0.0608,0.0608,0.0609,0.0609,0.0609,0.0609,0,0.0605,0.0606,0.0605,0.0605,0.0606,0.0605,0.0605,0.0605,0.0605,0.0605,0.0605,0.0606,0.0605,0.0606,0.0606,0.0606,0.0605,0.0606,0.0605,0.0605,0.0604,0.0604,0.0601,0.0601,0.0604,0.0604,0.0604,0,0.0603,0.0602,0.0603,0.0603,0.0603,0.0603,0.0602,0.0604,0.0603,0.0604,0.0603,0.0603,0.0603,0.0603,0.0603,0.0603,0.0604,0.0603,0.0604,0.0603,0.0603,0.0603,0.0603,0.0602,0.0602,0.0602,0.0602,0,0.0599,0.06,0.06,0.06,0.06,0.06,0.06,0.06,0.0601,0.0601,0.0601,0.0601,0.0601,0.06,0.0601,0.0601,0.0602,0.0602,0.0602,0.0601,0.0601,0.0601,0.0605,0.0602,0.0602,0.0602,0.0602,0.0602,0.0596,0.0596,0.0596,0.0596,0.0597,0.0597,0.0597,0.0597,0.0597,0.0597,0.0598,0.0598,0.0598,0.0599,0.0599,0.0599,0.0599,0.0599,0.0599,0.0599,0.0598,0.0601,0.0599,0.0599,0.0599,0.0599,0.0599,0,0.0592,0.0593,0.0593,0.0593,0.0593,0.0594,0.0595,0.0595,0.0594,0.0595,0.0595,0.0595,0.0595,0.0596,0.0596,0.0596,0.0596,0.0596,0.0596,0.0596,0.0598,0.0598,0.0595,0.0595,0.0595,0.0595,0.0595,0.0595,0.059,0.059,0.0591,0.059,0.0591,0.0591,0.0591,0.0591,0.0591,0.0591,0.0591,0.0592,0.0593,0.0593,0.0593,0.0593,0.0593,0.0593,0.0593,0.0595,0.0595,0.0596,0.0596,0.0593,0.0593,0.0591,0.0591,0.0591]},{"header":{"parameterUnit":"m.s-1","parameterCategory":1,"la1":30.2991,"la2":30.254,"lo1":-89.0895,"lo2":-89.0444,"dy":0.0017,"dx":0.0017,"nx":28,"ny":28,"refTime":"2025-07-15T21:00:00:Z","depth":0,"parameterNumber":3,"parameterNumberName":"V-component_of_WINDS"},"data":[0,0,0,0,0,0,0,0,0,0,0,0,0,0,0,0,0,0,0,0,0,0,0,0,0,0,0,0,0,0,0,0,0,0,0,0,0,0,0,0,0,0,0,0,0,0,0,0,0,0,0,0,0,0,0,0,0,0,2.5161,2.516,0,2.506,2.5059,2.5058,2.5003,2.5003,2.5003,2.5003,2.4892,2.4889,2.4886,0,0,0,0,0,0,0,0,0,0,0,0,0,2.5298,2.5295,2.5161,2.5159,2.5158,2.506,2.5059,2.5058,2.5003,2.5003,2.5003,2.5003,2.4893,2.489,2.4886,0,0,0,0,0,0,0,0,0,0,0,0,0,2.5222,2.5295,2.5161,2.5119,2.5115,2.5061,2.5059,2.5057,2.5003,2.5003,2.5003,2.5003,2.4894,2.489,2.4886,2.4863,0,0,2.4873,2.4871,0,0,0,0,0,0,0,0,2.5226,2.5217,2.5127,2.5122,2.5117,2.5044,2.5067,2.4992,2.5003,2.5045,2.5003,2.5002,2.4942,2.4934,2.4915,2.4858,2.4853,2.4872,2.487,2.4868,2.4867,0,0,0,0,0,0,0,2.5231,2.5221,2.5121,2.5125,2.5119,2.5103,2.5092,2.5052,2.4996,2.5041,2.5037,2.5027,2.4939,2.492,2.4912,2.4851,2.4872,2.4869,2.4866,2.4864,2.4769,2.4769,0,0,0,0,0,0,2.5244,2.5225,2.5124,2.5118,2.5172,2.5101,2.5089,2.5067,2.4996,2.4985,2.5027,2.5024,2.4927,2.4917,2.4908,2.4876,2.4868,2.4864,2.4861,2.4769,2.4769,2.4769,0,0,0,0,0,0,2.5247,2.5236,2.5128,2.517,2.5155,2.5099,2.5075,2.5066,2.5046,2.4985,2.4974,2.5018,2.4926,2.4914,2.4875,2.4872,2.4862,2.4858,2.4769,2.4769,2.4769,2.4813,0,0,0,0,0,0,2.5252,2.5237,2.523,2.5171,2.5154,2.5099,2.5075,2.5064,2.504,2.5035,2.4973,2.4963,2.4925,2.4882,2.4871,2.4866,2.4855,2.4769,2.4769,2.4769,2.4812,2.4815,2.4817,0,0,0,0,0,2.5257,2.5244,2.523,2.5218,2.5143,2.5099,2.5089,2.5048,2.504,2.503,2.4991,2.4965,2.4874,2.4878,2.4865,2.4859,2.4769,2.4769,2.4769,2.481,2.4814,2.4817,0,0,0,0,0,0,2.5301,2.5236,2.5219,2.5188,2.515,2.509,2.5077,2.5053,2.5015,2.5012,2.4961,2.4947,2.4913,2.4882,2.4887,2.4833,2.4819,2.4816,2.4854,2.4857,2.486,2.4868,2.4851,0,0,0,0,0,2.5308,2.528,2.5223,2.5201,2.5183,2.5134,2.5113,2.5085,2.5042,2.5025,2.4983,2.4941,2.4903,2.4878,2.484,2.4808,2.4792,2.4797,2.48,2.4802,2.48,2.478,2.4781,2.477,2.477,2.477,0,0,2.5321,2.5282,2.5266,2.5209,2.5176,2.5146,2.512,2.5089,2.5065,2.5019,2.4981,2.4949,2.4897,2.4862,2.4844,2.4835,2.48,2.4802,2.4805,2.4801,2.478,2.4781,2.4782,2.477,2.477,2.477,0,0,2.5328,2.5297,2.5275,2.5243,2.5195,2.5162,2.5157,2.5101,2.5079,2.504,2.5005,2.4974,2.491,2.4875,2.4849,2.4845,2.4818,2.4834,2.4847,2.4828,2.4829,2.483,2.4827,2.4827,2.4832,2.4832,2.4832,0,2.5349,2.5305,2.5265,2.5237,2.5212,2.5172,2.5148,2.5119,2.5059,2.5042,2.5034,2.4953,2.4916,2.4871,2.487,2.4851,2.4842,2.484,2.4833,2.4833,2.4833,2.4829,2.4829,2.4834,2.4834,2.4834,2.4834,0,2.5332,2.5302,2.5289,2.5237,2.521,2.5184,2.5139,2.5116,2.5091,2.5059,2.5019,2.4974,2.4925,2.4913,2.4887,2.4864,2.486,2.4843,2.4827,2.4837,2.4833,2.4831,2.4837,2.4837,2.4836,2.4835,0,0,2.5363,2.5291,2.5287,2.5262,2.5207,2.5181,2.5153,2.5108,2.509,2.505,2.5024,2.4971,2.4955,2.4926,2.4895,2.4879,2.4877,2.4863,2.4861,2.4867,2.4848,2.4861,2.486,2.486,2.486,2.486,2.4852,0,2.5362,2.5312,2.5276,2.5239,2.5209,2.5172,2.5147,2.5109,2.5078,2.5046,2.5011,2.4974,2.4957,2.4939,2.4921,2.4882,2.4873,2.4882,2.4833,2.4831,2.4846,2.4858,2.4871,2.4866,2.485,2.485,2.485,0,2.5354,2.5319,2.528,2.5228,2.5214,2.5192,2.5149,2.512,2.5076,2.5054,2.5022,2.4992,2.4958,2.4947,2.4898,2.4905,2.4883,2.486,2.4859,2.4852,2.484,2.485,2.4864,2.4863,2.4847,2.4848,2.4848,0,2.538,2.5322,2.5291,2.5272,2.5211,2.5196,2.5169,2.5125,2.5101,2.5062,2.5045,2.5002,2.4978,2.4944,2.4902,2.4898,2.4857,2.4843,2.4836,2.4838,2.4828,2.4829,2.4838,2.4816,2.4816,2.4816,2.4816,0,2.5381,2.5358,2.5302,2.5283,2.5256,2.5214,2.5187,2.5157,2.5118,2.5091,2.5055,2.5029,2.4976,2.4943,2.491,2.4874,2.4863,2.4843,2.4834,2.4846,2.4848,2.4829,2.4828,2.4816,2.4816,2.4816,2.4816,0,2.5405,2.5367,2.5331,2.5277,2.5263,2.5245,2.5197,2.5176,2.5144,2.5109,2.5099,2.5047,2.5007,2.4963,2.4906,2.4884,2.485,2.4838,2.4866,2.486,2.4856,2.4857,2.4852,2.4848,2.4831,2.4831,2.4832,0,2.5408,2.539,2.5335,2.5316,2.5291,2.526,2.5235,2.5193,2.5169,2.5118,2.5102,2.506,2.5024,2.4961,2.4916,2.4873,2.4859,2.486,2.4852,2.4864,2.4858,2.4859,2.4856,2.4862,2.4863,2.4863,2.4863,0,2.5417,2.54,2.5368,2.5329,2.5302,2.5269,2.5234,2.5219,2.517,2.5144,2.5104,2.5076,2.5021,2.4978,2.493,2.4899,2.4872,2.4867,2.4863,2.4873,2.489,2.488,2.4871,2.4866,2.4866,2.4866,2.4866,2.4866,2.543,2.5412,2.5371,2.5336,2.5307,2.5275,2.5253,2.5219,2.5186,2.5139,2.5115,2.5075,2.503,2.4963,2.4934,2.49,2.4892,2.4886,2.4884,2.4883,2.4886,2.4897,2.4891,2.4891,2.4891,2.4891,2.4891,0,2.5437,2.5409,2.5378,2.5332,2.5304,2.5284,2.5245,2.5222,2.5188,2.515,2.5116,2.507,2.5029,2.4983,2.4938,2.492,2.4906,2.491,2.491,2.4903,2.4897,2.4904,2.4921,2.4921,2.4921,2.4921,2.4921,2.4921,2.5437,2.5406,2.5383,2.5336,2.5307,2.527,2.5249,2.5219,2.5189,2.514,2.5107,2.5078,2.5036,2.4988,2.4949,2.4936,2.4921,2.4928,2.4911,2.4906,2.4903,2.4901,2.4908,2.4925,2.4925,2.4919,2.4919,2.4919]}]]